Погода в Нюрбе

Погода в Нюрбе : погода сейчас, прогноз погоды и архив. Всё, что Вы хотите узнать о погоде в Нюрбе!

Хотите узнать прогноз погоды в Нюрбе? Тогда Вам сюда: Погода в Нюрбе

Поиск расширенной информации на нашем сайте:

Другие новости

Новости СМИ2

Главная страница сайта

Новости сайта

03.07.2017

Напоминаем, что на нашем специализированном сайте Метеоцентр.Азия вы можете получить высокодетализированные автоматические прогнозы погоды по пунктам России, СНГ и мира в авиационном формате (включающие направление и скорость ветра, видимость, явления погоды, количество и форму облачности, нижнюю и верхнюю границу облачности).

Рекомендуем: Лечебное голодание

Погода в Нюрбе - сегодня

Время (UTC), дата Ветер
(°,м/с) 
Видим.   Явления Облачность Т
(°С)
Тd
(°С)
f(%) Тe
(°С)
Pmin
(гПа)
dP
(гПа)
Po
(мм)
O2
(г/м3)
Тmin Tmax R s Состояние
почвы
03 20.07.17 020 (С) 20000 м    5/5 600 м 
[Sc]
+17.6 +8.2 54 +18  1009.4  0.3  747  281           
06 20.07.17 340 (С) 20000 м    8/4 600 м средняя 
[Sc|Ac trans]
+18.2 +4.6 41 +19  1010.3  0.9  747  282           
09 20.07.17 350 (С) 20000 м    10/0 средняя, верхняя 
[Ac trans|Ci fib]
+17.9 +3 37 +18  1010.6  0.3  747  282           
12 20.07.17 030 (СВ) 20000 м    6/0 средняя, верхняя 
[Ac trans|Ci fib]
+15.1 +2.3 42 +15  1011.5  0.7  748  285    +19       
15 20.07.17 340 (С) 20000 м    8/0 средняя, верхняя 
[Ac trans|Ci fib]
+9.7 +1.5 57 +9  1013.7  749  291           
18 20.07.17 340 (С) 20000 м    3/0 верхняя 
[Ci fib]
+2.9 +0.8 86 +4  1015.6  1.4  751  299           
21 20.07.17 040 (СВ) 20000 м    1/0 верхняя 
[Ci fib]
+4.4 +0.5 76 +4  1016  0.5  751  298           
00 21.07.17 040 (СВ) 20000 м    1/1 600 м 
[Cu hum]
+9.6 +1.1 55 +8  1016.3  0.7  751  292  +1.6        сухая 
03 21.07.17 020 (С) 20000 м    1/1 600 м 
[Cu hum]
+13 +1.9 47 +12  1015.6  -0.6  751  289           
06 21.07.17 010 (С) 20000 м    3/3 600 м 
[Cu hum]
+17 +2.1 37 +17  1014.4  -1  750  284           
09 21.07.17 010 (С) 20000 м    1/1 600 м 
[Cu hum]
+17.6 +0.9 32 +18  1014.1  -0.2  750  284           
12 21.07.17 360 (С) 20000 м    ясно 
+15 +0.2 36 +15  1014.6  0.3  750  287    +17.6       
15 21.07.17 320 (СЗ) 20000 м    3/0 верхняя 
[Ci fib]
+5.9 +2.5 79 +7  1016  0.9  751  296           
18 21.07.17 330 (СЗ) 20000 м    3/0 верхняя 
[Ci fib]
+3.4 +1.6 88 +4  1016.1  751  299           
21 21.07.17 тихо ()   20000 м    ясно 
+2.9 +1.6 91 +3  1016.2  751  299           
00 22.07.17 290 (З) 20000 м    ясно 
+14.5 +4.3 50 +16  1016  0.5  751  287  +1.9        сухая 
03 22.07.17 310 (СЗ) 20000 м    5/4 1000 м верхняя 
[Cu hum|Ci fib]
+18.2 +5 42 +19  1015.1  -0.7  751  283           
06 22.07.17 310 (СЗ) 20000 м    8/5 600 м средняя, верхняя 
[Cu med, cong|Ac trans|Ci fib]
+19.4 +3.2 34 +20  1013.8  -1.3  750  282           
09 22.07.17 280 (З) 20000 м    6/4 600 м средняя, верхняя 
[Sc|Ac trans|Ci fib]
+18.3 +5.3 42 +19  1013.4  -0.4  750  282           
12 22.07.17 290 (З) 20000 м  слаб. дождь  8/4 600 м средняя 
[Sc|As trans]
+15.9 +8.2 60 +17  1012.8  -0.7  749  284    +20.3  0.0     
15 22.07.17 270 (З) 20000 м  {дождь}  10/5 600 м кучево-дожд., средняя 
[Cb cap|As trans]
+13.6 +8.6 72 +15  1011.8  -1.1  748  286           
18 22.07.17 260 (З) 20000 м  {дождь}  10/5 600 м кучево-дожд., средняя 
[Cb cap|As trans]
+12.1 +9.9 86 +13  1010.9  -1  747  287           
21 22.07.17 260 (З) 20000 м    5/3 600 м средняя 
[Sc|Ac trans]
+12.2 +10.5 89 +15  1009.8  -1.1  747  286           
00 23.07.17 230 (ЮЗ) 20000 м    6/3 600 м средняя 
[Sc|Ac trans]
+17.1 +11 67 +22  1009.3  -0.2  746  281  +11.5    0.0    сухая 
03 23.07.17 230 (ЮЗ) 20000 м    6/3 600 м кучево-дожд., средняя, верхняя 
[Cb cap|Ac trans|Ci fib]
+19.6 +12.3 63 +25  1008.8  -0.4  746  278           
Время (UTC), дата Ветер
(°,м/с) 
Видим.   Явления Облачность Т
(°С)
Тd
(°С)
f(%) Тe
(°С)
Pmin
(гПа)
dP
(гПа)
Po
(мм)
O2
(г/м3)
Тmin Tmax R s Состояние
почвы

Для получения пояснительной информации подведите курсор к названию столбца.

ПОГОДА в Нюрбе - архив

Всё, что Вы хотите узнать о погоде в Нюрбе - удобно и подробно!

Выберите нужную дату (начиная с 1 января 2015* года) и нажмите кнопку "Найти".
Будут отображены архивные сводки погоды по пункту Нюрба, начиная с указанной даты.


Отображать данные в формате CSV (для использования в таблицах Excel)


Внимание! Наш архив погоды предназначен исключительно для личного некоммерческого использования в познавательных целях. Если Вам необходимы официальные справки о состоянии погоды (для производственных, юридических, коммерческих и т.п. целей), обращайтесь в органы Росгидромета.

*Примечание: данная дата относится к архиву по метеостанциям СССР (Россия, СНГ, Балтия).
Архив по метеостанциям Зарубежной Европы и Азии (кроме Китая) хранится 10 дней, по другим регионам земного шара (Китай, Африка, Америка, Австралия, Океания) - 1 день.

Нюрба - район местоположения метеостанции


Название, широта, долгота, высота метеостанции:
Нюрба 63.3°ш. 118.3°д. 119 м над ур. моря [Российская Федерация]

Дополнительная информация

В oтличие oт бoльшинства пoгoдных сайтoв мы публикуем пoдрoбную метеoинфoрмацию в детальнoм прoфессиoнальнoм фoрмате.

Характеристики температуры и влажнoсти вoздуха измеряются на высoте 2 м в тени вдали oт зданий и деревьев.
Скoрoсть ветра измеряется на высoте 10 м (на урoвне рoста челoвека скoрoсть ветра ниже в 1.5-2 раза). Если метеoстанция нахoдится в гoрoде или в лесу, тo скoрoсть ветра занижена на 2-4 м/с пo сравнению с oткрытым местoм. Скoрoсть ветра над акватoриями крупных рек и oзёр, а также на вершинах хoлмoв на 2-5 м/с выше, чем в oбычных услoвиях.
Атмoсфернoе давление в разных тoчках местнoсти мoжет значительнo oтличаться oт давления на метеoстанции, в зависимoсти oт услoвий рельефа (при пoдъёме на 10 м давление пoнижается примернo на 1 мм рт.ст.).